| time (UTC) | temp F | wind direction | speed MPH | gust MPH | rain 1hr in | rain 24hr in | rain mn in | humidity % | barometer mb |
| 20260902002354 | 56 | 0 | 0.0 | 9.0 | 0.00 | 0.00 | 0.00 | 51 | 1004.7 |
| 20260902000849 | 56 | 322 | 3.0 | 11.0 | 0.00 | 0.00 | 0.00 | 53 | 1004.7 |
| 20260901235347 | 56 | 0 | 0.0 | 8.0 | 0.00 | 0.00 | 0.00 | 52 | 1004.7 |
| 20260901233842 | 55 | 0 | 0.0 | 7.0 | 0.00 | 0.00 | 0.00 | 54 | 1004.7 |
| 20260901230831 | 55 | 320 | 2.0 | 12.0 | 0.00 | 0.00 | 0.00 | 56 | 1004.7 |
| 20260901223823 | 54 | 320 | 1.0 | 7.0 | 0.00 | 0.00 | 0.00 | 56 | 1005.0 |
| 20260901220814 | 53 | 0 | 0.0 | 6.0 | 0.00 | 0.00 | 0.00 | 58 | 1005.2 |
| 20260901215311 | 53 | 0 | 0.0 | 7.0 | 0.00 | 0.00 | 0.00 | 61 | 1005.2 |
| 20260901213805 | 52 | 0 | 0.0 | 7.0 | 0.00 | 0.00 | 0.00 | 61 | 1005.4 |
| 20260901212306 | 52 | 268 | 1.0 | 11.0 | 0.00 | 0.00 | 0.00 | 64 | 1005.4 |
| 20260901210757 | 51 | 246 | 1.0 | 9.0 | 0.00 | 0.00 | 0.00 | 64 | 1005.4 |
| 20260901205254 | 51 | 268 | 2.0 | 9.0 | 0.00 | 0.00 | 0.00 | 66 | 1005.5 |
| 20260901203747 | 50 | 0 | 0.0 | 4.0 | 0.00 | 0.00 | 0.00 | 65 | 1005.5 |
| 20260901200739 | 48 | 0 | 0.0 | 5.0 | 0.00 | 0.00 | 0.00 | 68 | 1005.6 |
| 20260901195234 | 47 | 0 | 0.0 | 6.0 | 0.00 | 0.00 | 0.00 | 71 | 1005.6 |
| 20260901193732 | 47 | 0 | 0.0 | 3.0 | 0.00 | 0.00 | 0.00 | 74 | 1005.5 |
| 20260901192227 | 46 | 0 | 0.0 | 0.0 | 0.00 | 0.00 | 0.00 | 78 | 1005.6 |
| 20260901190719 | 45 | 0 | 0.0 | 3.0 | 0.00 | 0.00 | 0.00 | 84 | 1005.6 |
| 20260901185216 | 44 | 0 | 0.0 | 1.0 | 0.00 | 0.00 | 0.00 | 91 | 1005.7 |
| 20260901183711 | 43 | 0 | 0.0 | 3.0 | 0.00 | 0.00 | 0.00 | 94 | 1005.8 |
| 20260901182208 | 41 | 0 | 0.0 | 0.0 | 0.00 | 0.00 | 0.00 | 96 | 1006.0 |
| 20260901175159 | 39 | 0 | 0.0 | 2.0 | 0.00 | 0.00 | 0.00 | 95 | 1006.1 |
| 20260901173657 | 38 | 0 | 0.0 | 0.0 | 0.00 | 0.00 | 0.00 | 95 | 1006.2 |
| 20260901172152 | 37 | 0 | 0.0 | 0.0 | 0.00 | 0.00 | 0.00 | 95 | 1006.2 |
| 20260901170648 | 35 | 0 | 0.0 | 0.0 | 0.00 | 0.00 | 0.00 | 94 | 1006.2 |
| 20260901165143 | 34 | 0 | 0.0 | 0.0 | 0.00 | 0.00 | 0.00 | 94 | 1006.2 |
| 20260901163640 | 33 | 0 | 0.0 | 0.0 | 0.00 | 0.00 | 0.00 | 94 | 1006.2 |
| 20260901162135 | 32 | 0 | 0.0 | 0.0 | 0.00 | 0.00 | 0.00 | 93 | 1006.0 |
| 20260901160633 | 32 | 0 | 0.0 | 0.0 | 0.00 | 0.00 | 0.00 | 93 | 1005.9 |
| 20260901155128 | 31 | 0 | 0.0 | 0.0 | 0.00 | 0.01 | 0.00 | 93 | 1005.8 |
| 20260901153623 | 31 | 0 | 0.0 | 0.0 | 0.00 | 0.03 | 0.00 | 92 | 1005.7 |
| 20260901152120 | 31 | 0 | 0.0 | 0.0 | 0.00 | 0.05 | 0.00 | 92 | 1005.7 |
| 20260901145111 | 32 | 0 | 0.0 | 0.0 | 0.00 | 0.10 | 0.00 | 92 | 1005.8 |
| 20260901140559 | 32 | 0 | 0.0 | 0.0 | 0.00 | 0.21 | 0.00 | 92 | 1005.7 |
| 20260901135054 | 32 | 0 | 0.0 | 0.0 | 0.00 | 0.23 | 0.00 | 92 | 1005.6 |
| 20260901133550 | 32 | 0 | 0.0 | 0.0 | 0.00 | 0.30 | 0.00 | 92 | 1005.5 |
| 20260901130542 | 34 | 0 | 0.0 | 0.0 | 0.00 | 0.37 | 0.00 | 92 | 1005.2 |
| 20260901123532 | 34 | 0 | 0.0 | 0.0 | 0.00 | 0.39 | 0.00 | 92 | 1005.0 |
| 20260901122028 | 34 | 0 | 0.0 | 0.0 | 0.00 | 0.39 | 0.00 | 92 | 1004.7 |
| 20260901120524 | 34 | 0 | 0.0 | 0.0 | 0.00 | 0.39 | 0.00 | 92 | 1004.7 |
| 20260901115019 | 34 | 0 | 0.0 | 0.0 | 0.00 | 0.39 | 0.00 | 91 | 1004.8 |
| 20260901113516 | 35 | 0 | 0.0 | 0.0 | 0.00 | 0.39 | 0.00 | 91 | 1004.8 |
| 20260901112012 | 36 | 0 | 0.0 | 0.0 | 0.00 | 0.39 | 0.00 | 91 | 1004.7 |
| 20260901110507 | 36 | 0 | 0.0 | 0.0 | 0.00 | 0.39 | 0.00 | 92 | 1004.8 |
| 20260901105004 | 37 | 0 | 0.0 | 0.0 | 0.00 | 0.39 | 0.00 | 91 | 1004.8 |
| 20260901103500 | 37 | 0 | 0.0 | 0.0 | 0.00 | 0.39 | 0.00 | 91 | 1004.7 |
| 20260901101955 | 37 | 0 | 0.0 | 0.0 | 0.00 | 0.39 | 0.00 | 91 | 1004.7 |
| 20260901100452 | 37 | 0 | 0.0 | 0.0 | 0.00 | 0.39 | 0.00 | 91 | 1004.7 |
| 20260901094947 | 38 | 0 | 0.0 | 0.0 | 0.00 | 0.39 | 0.00 | 90 | 1004.7 |
| 20260901093444 | 39 | 0 | 0.0 | 0.0 | 0.00 | 0.39 | 0.00 | 91 | 1004.6 |
| 20260901091939 | 39 | 0 | 0.0 | 0.0 | 0.00 | 0.39 | 0.00 | 90 | 1004.2 |
| 20260901084930 | 40 | 0 | 0.0 | 0.0 | 0.00 | 0.39 | 0.00 | 89 | 1003.7 |
| 20260901083425 | 41 | 0 | 0.0 | 0.0 | 0.00 | 0.39 | 0.40 | 89 | 1003.6 |
| 20260901081922 | 41 | 0 | 0.0 | 0.0 | 0.00 | 0.39 | 0.40 | 88 | 1003.5 |
| 20260901074911 | 43 | 0 | 0.0 | 0.0 | 0.00 | 0.39 | 0.40 | 86 | 1003.5 |
| 20260901073407 | 44 | 0 | 0.0 | 0.0 | 0.00 | 0.39 | 0.40 | 83 | 1003.2 |
| 20260901071903 | 45 | 0 | 0.0 | 4.0 | 0.00 | 0.39 | 0.40 | 81 | 1003.1 |
| 20260901070400 | 46 | 0 | 0.0 | 11.0 | 0.00 | 0.39 | 0.40 | 79 | 1003.3 |
| 20260901064855 | 46 | 4 | 3.0 | 10.0 | 0.00 | 0.39 | 0.40 | 79 | 1003.0 |
| 20260901063350 | 46 | 0 | 0.0 | 7.0 | 0.00 | 0.39 | 0.40 | 79 | 1002.6 |
| 20260901061846 | 45 | 356 | 3.0 | 10.0 | 0.00 | 0.39 | 0.40 | 81 | 1002.5 |
| 20260901060341 | 45 | 311 | 1.0 | 6.0 | 0.00 | 0.39 | 0.40 | 83 | 1002.1 |
| 20260901054837 | 46 | 0 | 0.0 | 0.0 | 0.00 | 0.39 | 0.40 | 81 | 1002.0 |
| 20260901053334 | 47 | 0 | 0.0 | 0.0 | 0.00 | 0.39 | 0.40 | 79 | 1001.9 |
| 20260901050324 | 49 | 341 | 1.0 | 7.0 | 0.00 | 0.39 | 0.40 | 74 | 1001.5 |
| 20260901044820 | 49 | 360 | 1.0 | 7.0 | 0.00 | 0.39 | 0.40 | 77 | 1001.4 |
| 20260901043316 | 50 | 0 | 0.0 | 6.0 | 0.00 | 0.39 | 0.40 | 75 | 1001.3 |
| 20260901041809 | 51 | 0 | 0.0 | 4.0 | 0.00 | 0.39 | 0.40 | 73 | 1001.3 |
| 20260901040306 | 52 | 300 | 1.0 | 10.0 | 0.00 | 0.39 | 0.40 | 66 | 1001.3 |
| 20260901034801 | 53 | 0 | 0.0 | 6.0 | 0.00 | 0.39 | 0.40 | 66 | 1001.1 |
| 20260901033258 | 54 | 289 | 1.0 | 7.0 | 0.00 | 0.39 | 0.40 | 65 | 1000.9 |
| 20260901031753 | 54 | 279 | 3.0 | 6.0 | 0.00 | 0.39 | 0.40 | 62 | 1000.8 |
| 20260901030251 | 55 | 303 | 4.0 | 9.0 | 0.00 | 0.39 | 0.40 | 63 | 1000.6 |
| 20260901024746 | 56 | 335 | 4.0 | 11.0 | 0.00 | 0.39 | 0.40 | 63 | 1000.4 |
| 20260901023242 | 55 | 306 | 1.0 | 9.0 | 0.00 | 0.39 | 0.40 | 64 | 1000.4 |
| 20260901021738 | 55 | 297 | 5.0 | 11.0 | 0.00 | 0.39 | 0.40 | 62 | 1000.2 |
| 20260901020235 | 55 | 334 | 2.0 | 10.0 | 0.00 | 0.39 | 0.40 | 60 | 1000.2 |
| 20260901014728 | 55 | 282 | 4.0 | 13.0 | 0.00 | 0.39 | 0.40 | 63 | 999.9 |
| 20260901011718 | 55 | 295 | 3.0 | 11.0 | 0.00 | 0.39 | 0.40 | 66 | 999.9 |
| 20260901010214 | 54 | 275 | 8.0 | 14.0 | 0.00 | 0.39 | 0.40 | 69 | 999.7 |
| 20260901004708 | 53 | 251 | 1.0 | 12.0 | 0.00 | 0.39 | 0.40 | 73 | 999.7 |
| 20260901003203 | 51 | 295 | 5.0 | 11.0 | 0.00 | 0.39 | 0.40 | 80 | 999.8 |